Hourly Data Report for October 26, 2006

ALERT CLIMATE
NUNAVUT

82°30'00.000" N
62°20'00.000" W
65.40 m
2400305
71355
ZLT

Download Data

Hourly Data (October 2006)
Hourly Data Report for October 26, 2006
TIME
LST
Temp Definition
°C
Dew Point Definition
°C
Rel Hum Definition
%
Precip. Amount Definition
mm

Wind Dir Definition
10's deg

Wind Spd Definition
km/h
Visibility Definition
km
Stn Press Definition
kPa
Hmdx Definition


Wind Chill Definition


Weather Definition


00:00 -5.7 -8.9 78   26 26   100.19   -13 LegendNANA
01:00 -5.1 -8.7 76   27 22   100.28   -12 LegendNANA
02:00 -7.4 -8.6 91   31 9   100.39   -12 LegendNANA
03:00 -6.8 -7.8 93   22 4   100.47   -9 LegendNANA
04:00 -6.6 -7.4 94   26 6   100.54   -10 LegendNANA
05:00 -6.9 -7.5 95     0   100.58     LegendNANA
06:00 -6.7 -7.4 95   36 4   100.64   -9 LegendNANA
07:00 -7.7 -8.5 94   29 2   100.71   -9 LegendNANA
08:00 -7.5 -8.4 93   36 6   100.75   -11 LegendNANA
09:00 -7.8 -8.5 95   28 6   100.80   -11 LegendNANA
10:00 -7.5 -8.2 95   25 4   100.84   -10 LegendNANA
11:00 -8.1 -8.9 94   28 6   100.85   -11 LegendNANA
12:00 -7.9 -8.6 95   28 11   100.86   -13 LegendNANA
13:00 -9.0 -9.9 93   28 9   100.87   -14 LegendNANA
14:00 -9.9 -10.8 93   27 9   100.87   -15 LegendNANA
15:00 -10.9 -11.8 93   28 7   100.86   -15 LegendNANA
16:00 -11.8 -12.8 92   27 6   100.85   -16 LegendNANA
17:00 -12.6 -14.6 85   26 9   100.83   -18 LegendNANA
18:00 -9.2 -12.5 77   22 19   100.80   -17 LegendNANA
19:00 -9.6 -11.6 85   26 11   100.74   -15 LegendNANA
20:00 -10.8 -14.4 75   24 15   100.71   -18 LegendNANA
21:00 -12.6 -15.0 82   27 17   100.70   -20 LegendNANA
22:00 -11.2 -14.5 77   26 28   100.67   -21 LegendNANA
23:00 -9.2 -12.7 76   26 28   100.64   -18 LegendNANA

Notes on Data Quality.

Legend

  • E = Estimated
  • M = Missing
  • NA = Not Available*
  • [empty] = Indicates an unobserved value
Date modified: